Wind_Speed
75 76 77 79 80 80 81 82 83 84 84 84 85 85 86 86 87 88 89 90 92 94 95 97 99 101 102 103 104 104 103 102 100 97 93 90 86 82 79 76 75 74 74 74 74 74 74 75 75 75 75 76 76 77 77 77 78 79 79 80 80 81 81 81 82 82 82 82 82 82 82 81 81 81 81 82 83 85 88 91 95 98 102 105 108 111
76 77 78 79 80 81 81 82 83 83 84 84 85 85 86 86 87 89 90 92 93 95 97 99 100 102 103 103 102 101 99 96 93 88 84 80 76 74 73 73 73 73 73 74 74 74 75 75 75 76 76 77 77 78 78 79 79 80 81 81 82 82 83 83 83 83 83 83 83 83 82 82 81 81 80 80 80 80 82 84 87 90 93 97 100 104
77 78 79 80 80 81 81 82 83 83 83 84 84 85 86 87 88 90 91 93 95 97 98 100 101 102 102 101 99 95 92 88 83 78 74 72 70 71 71 72 72 73 73 73 74 74 75 75 76 76 77 77 77 78 78 79 80 81 82 82 83 83 83 83 83 84 83 83 84 83 83 83 83 82 81 80 79 78 78 79 80 82 85 89 92 96
78 79 79 80 80 81 81 81 82 83 83 84 85 86 87 88 90 91 93 94 96 98 99 100 100 100 98 96 92 88 83 78 73 70 68 68 69 70 71 72 73 73 73 73 73 74 74 75 75 75 76 76 77 78 79 80 81 82 82 83 83 83 83 83 83 83 83 83 84 84 84 84 83 83 82 81 79 78 78 77 77 78 79 82 85 88
78 79 79 80 80 80 81 81 82 82 83 84 85 86 88 89 91 92 94 96 97 98 99 99 98 96 93 89 84 78 73 68 66 65 66 67 69 70 72 72 73 73 73 73 73 73 73 73 73 73 75 76 78 79 81 82 83 83 83 82 82 81 81 81 81 81 82 82 83 83 83 84 83 83 82 81 80 79 78 77 76 76 76 77 79 81
78 79 79 80 80 80 80 81 81 83 84 85 86 87 89 90 92 93 94 96 97 97 97 96 93 90 85 80 74 69 65 63 63 64 65 67 69 70 71 72 72 72 72 72 71 70 69 69 70 71 73 76 78 80 82 83 83 83 82 81 80 80 79 79 79 79 79 80 81 81 82 83 83 83 82 82 81 80 78 77 76 75 75 75 75 76
78 78 79 79 80 80 80 81 82 83 85 86 87 88 89 91 92 93 94 94 95 94 93 91 87 82 76 71 66 63 61 61 62 64 65 66 67 68 69 69 69 69 68 67 66 65 65 66 67 69 72 74 77 79 81 82 82 81 79 79 78 78 78 78 78 77 77 78 78 79 80 81 81 82 82 81 81 80 79 78 77 76 75 74 74 74
78 78 78 79 79 80 80 81 82 84 85 87 88 89 90 91 92 92 93 93 92 90 88 84 80 74 68 64 61 60 61 61 62 63 65 66 66 67 67 66 65 63 62 60 60 60 61 63 65 67 70 72 75 77 79 80 79 78 77 76 76 75 75 75 75 75 75 75 75 76 77 78 79 79 80 80 80 79 79 78 77 76 76 75 75 74
78 78 78 79 79 80 81 82 83 84 85 87 88 89 89 90 91 91 91 89 88 85 81 77 72 67 62 60 59 60 61 62 62 63 64 65 65 65 64 63 61 59 58 57 57 57 59 61 63 66 68 70 72 74 76 77 76 75 74 74 73 73 73 73 72 72 72 72 72 72 73 74 75 77 78 78 78 78 78 78 77 77 76 76 76 76
79 79 79 79 80 80 81 82 83 84 86 87 88 88 89 88 89 89 88 86 83 79 74 69 65 61 59 58 58 60 61 62 62 62 63 63 63 62 62 61 59 58 57 56 56 57 59 60 62 64 66 67 69 70 72 73 73 72 72 72 71 71 71 70 70 70 70 69 69 70 70 71 72 73 74 75 76 77 77 77 77 77 77 77 77 77
79 79 79 80 80 81 82 82 83 84 85 86 87 88 88 87 86 85 84 81 77 72 67 63 60 58 58 58 58 59 60 61 61 61 61 62 62 61 60 59 58 57 57 57 57 57 58 59 61 62 63 64 65 66 68 69 70 70 70 70 70 70 71 70 70 69 69 68 68 68 68 68 69 70 71 73 74 75 76 76 77 77 78 78 78 78
79 80 80 80 81 81 82 83 83 84 84 84 85 85 85 85 84 82 79 75 71 65 61 57 56 56 57 58 59 59 60 60 60 60 60 61 61 61 60 58 57 56 55 56 56 57 57 58 59 59 59 59 60 61 63 65 67 68 69 70 71 71 72 72 71 69 68 67 67 66 66 66 66 67 68 70 71 73 74 75 76 77 78 78 78 78
80 80 80 81 81 82 82 82 82 83 83 82 82 81 81 81 80 77 74 69 64 59 56 55 54 54 56 57 58 59 59 59 59 59 60 60 61 60 59 57 55 55 55 55 56 56 57 57 57 57 56 55 55 56 57 60 63 65 67 69 70 71 71 71 69 68 67 66 65 64 64 64 64 64 65 67 68 70 72 73 75 76 76 77 77 78
80 80 81 81 81 81 81 81 81 81 81 80 79 79 78 77 75 72 68 63 59 56 54 54 54 54 55 56 57 58 59 59 58 58 58 59 59 58 57 56 55 54 54 55 56 56 57 57 57 57 55 53 52 51 52 54 56 59 61 64 65 65 66 65 65 65 64 64 63 62 62 61 62 62 63 64 65 67 69 70 72 73 74 75 76 76
80 81 81 81 81 80 80 79 79 79 78 78 77 76 75 73 70 66 62 59 56 54 53 54 54 53 53 54 56 58 59 59 58 57 57 56 55 55 55 55 54 54 55 56 57 57 57 58 57 57 55 53 51 49 48 48 49 51 53 55 56 57 58 59 60 61 61 61 61 61 61 61 61 61 62 62 63 65 66 68 69 71 72 73 74 75
80 80 80 80 80 79 78 77 76 76 76 75 75 73 71 68 65 61 58 55 54 53 53 54 54 53 52 52 54 57 59 59 58 56 55 53 52 52 53 54 54 54 55 56 57 58 58 58 58 57 56 54 53 50 48 47 46 46 46 47 48 50 51 53 54 56 57 57 58 59 60 60 61 62 62 63 64 65 66 67 68 69 70 71 73 74
80 80 80 79 78 77 76 75 75 74 73 73 72 70 67 63 60 57 55 54 53 53 53 54 54 54 53 52 53 55 58 59 57 55 53 50 49 48 50 52 53 54 55 56 58 58 59 58 58 58 57 56 54 52 51 49 47 46 45 45 45 46 47 48 49 51 52 54 55 57 58 59 61 62 63 64 65 66 67 68 69 69 70 71 72 73
79 79 78 77 76 75 74 73 72 72 72 70 69 66 63 59 56 54 53 53 53 53 54 54 55 55 55 54 53 54 56 58 57 54 51 49 47 46 47 49 51 53 54 56 57 58 58 59 59 58 58 57 56 54 53 51 50 49 48 48 47 47 48 48 49 50 51 53 54 56 58 59 61 63 64 65 66 66 67 68 69 70 71 72 73 74
78 77 76 75 74 73 72 71 70 70 69 68 66 63 59 56 53 52 52 53 53 54 55 55 55 56 56 56 54 54 55 57 56 54 51 48 46 45 46 47 49 50 52 54 55 57 58 59 59 59 58 57 56 55 54 53 53 52 52 51 51 51 51 52 52 53 53 54 55 56 58 60 61 63 65 66 66 67 67 67 68 68 69 70 71 72
77 75 74 72 71 70 70 69 68 67 67 65 63 59 55 53 52 51 52 53 54 55 55 56 56 56 56 55 54 54 55 56 56 54 50 47 45 44 45 47 48 49 50 52 53 55 57 58 59 59 58 58 57 56 55 55 54 54 53 53 54 54 54 55 55 55 56 56 57 57 58 59 60 62 64 66 67 68 68 67 67 67 67 67 68 69
75 73 71 69 68 67 67 67 66 65 64 63 60 56 53 51 51 51 52 53 54 55 55 56 56 56 55 55 54 54 55 56 56 54 50 46 44 43 45 46 48 48 49 50 52 54 56 57 58 58 58 57 57 57 56 56 55 55 55 55 55 56 56 57 57 57 57 57 57 56 55 54 54 56 58 60 63 65 67 67 67 67 67 66 66 67
72 70 68 66 65 64 64 64 64 63 62 60 57 54 52 51 51 51 52 53 54 55 55 55 55 55 55 54 54 54 55 56 57 55 51 47 43 42 44 46 48 48 48 49 51 52 54 55 56 56 56 56 56 56 56 56 56 56 56 56 56 57 57 58 58 58 58 58 57 55 52 50 48 47 48 50 52 56 59 61 63 65 66 66 67 67
69 67 65 63 62 62 62 62 62 61 59 56 54 52 51 51 51 51 52 53 54 55 55 55 54 54 54 54 54 54 55 56 57 55 52 49 45 43 44 46 48 48 48 49 50 51 52 53 53 54 54 54 55 55 56 56 56 56 56 56 56 57 57 58 58 58 58 58 57 55 52 49 47 44 43 43 43 44 47 50 53 56 59 62 64 66
66 64 62 61 60 60 61 61 61 59 56 53 51 50 50 50 51 51 52 53 54 55 55 54 54 53 53 53 53 54 55 56 56 56 53 50 47 45 45 47 48 48 48 48 49 50 51 51 51 51 51 52 52 53 54 55 56 56 56 56 57 57 57 58 58 58 58 58 58 56 54 52 49 47 45 43 42 41 41 41 43 45 48 51 54 58
64 62 60 59 59 60 60 60 59 56 53 51 49 49 49 50 50 51 52 54 55 55 55 54 54 53 53 53 53 53 54 55 55 55 53 51 48 46 46 46 47 47 47 47 48 49 50 50 49 49 49 49 50 51 52 53 54 55 55 56 56 57 57 57 58 58 58 59 58 57 56 54 52 50 48 46 44 43 41 40 40 40 41 42 44 46
61 60 58 58 59 59 59 59 57 54 51 49 48 48 49 50 51 52 53 54 55 55 55 54 53 53 52 52 53 53 53 53 54 53 52 51 48 46 45 45 46 46 45 45 46 47 48 48 47 47 47 48 48 49 50 51 52 52 53 54 54 55 56 57 57 58 59 59 59 59 58 56 55 52 50 48 47 45 44 43 42 41 40 40 40 41
58 57 57 57 58 58 58 57 54 51 48 47 47 49 50 51 52 53 53 54 54 54 54 53 53 52 51 52 52 52 52 52 52 52 51 50 48 46 44 44 45 45 44 44 44 44 45 45 45 45 46 46 47 48 49 49 50 51 51 52 53 54 55 55 56 57 58 59 59 59 59 58 57 55 53 51 49 48 46 45 45 44 43 43 42 41
56 55 55 56 57 57 56 54 51 48 46 46 47 49 50 52 53 53 54 53 53 53 53 52 52 52 52 51 51 51 50 50 50 50 50 49 47 45 44 44 44 44 44 43 43 43 43 43 43 43 43 44 45 46 47 48 49 50 51 51 52 53 54 54 55 56 58 59 59 60 60 60 59 58 57 55 53 51 49 48 48 47 47 47 46 45
54 54 55 56 56 56 53 50 47 45 45 45 47 49 50 52 53 53 53 53 52 52 51 51 51 52 52 51 50 49 48 48 48 48 48 47 45 44 43 43 43 44 44 44 43 43 42 43 43 43 43 43 44 45 46 47 48 49 50 51 52 53 53 54 55 56 57 58 59 60 61 61 61 61 60 58 57 55 53 52 51 51 51 50 49 48
52 53 54 55 55 53 50 47 44 43 44 45 47 49 50 51 52 52 52 52 51 50 50 50 50 51 51 51 49 47 45 45 45 46 46 44 43 42 42 42 43 44 45 45 44 43 43 43 44 45 45 45 44 44 44 45 46 47 49 50 51 52 53 53 54 55 56 58 59 60 61 62 62 62 62 61 60 59 58 57 56 55 55 54 52 51
51 52 53 53 52 49 46 44 42 42 43 45 47 48 49 50 51 51 50 50 49 49 49 49 49 50 50 50 48 46 43 42 42 43 44 43 42 41 41 42 42 43 44 45 46 45 44 44 45 46 47 47 46 45 44 44 45 45 46 48 49 50 51 52 53 55 56 57 58 60 61 62 63 63 63 63 63 63 62 62 61 61 60 59 58 56
51 52 52 51 49 46 43 41 41 42 43 45 46 47 48 49 49 49 48 48 47 47 47 47 48 48 48 47 46 44 42 40 41 41 42 41 41 41 41 42 43 43 44 45 46 47 47 47 47 48 48 48 48 46 45 44 44 44 44 45 46 47 48 49 51 53 54 56 57 59 61 62 63 64 64 64 64 64 64 64 64 64 65 64 64 62
50 51 50 48 45 42 40 40 40 41 43 44 45 46 47 47 47 46 46 45 45 45 45 46 46 46 46 45 43 42 40 40 40 40 41 41 41 41 42 43 44 44 45 45 46 48 49 50 50 50 50 50 49 47 45 44 43 42 42 42 43 43 44 46 48 49 51 53 55 57 59 61 63 64 65 65 65 65 65 66 66 66 67 68 68 67
50 49 48 45 42 39 38 39 40 41 43 44 45 45 45 45 44 44 43 43 43 43 44 45 45 45 44 43 42 40 39 39 39 40 40 41 42 42 42 43 44 45 45 46 47 48 49 51 52 53 52 50 48 47 45 44 42 41 41 41 41 41 41 42 44 46 47 49 51 53 55 58 60 62 64 65 66 67 67 67 67 67 68 69 70 70
49 47 44 41 39 37 37 38 40 41 42 43 43 44 43 43 42 41 41 41 41 41 42 43 44 44 43 42 41 40 39 38 39 39 40 41 42 42 43 44 45 45 46 47 48 49 50 51 52 53 53 51 48 45 43 42 40 39 39 39 40 40 40 40 41 42 43 45 46 48 50 53 55 58 61 63 65 66 68 68 69 69 69 70 70 71
47 44 41 38 36 36 37 38 39 40 41 42 42 42 41 41 40 39 39 39 39 40 40 41 42 42 42 42 41 40 39 38 38 39 40 41 42 42 43 44 44 45 46 47 48 49 50 51 52 52 52 50 47 43 40 39 37 37 37 38 39 39 40 40 41 41 41 41 42 43 45 47 49 52 55 57 60 63 65 67 69 70 70 71 71 72
44 41 37 35 35 35 36 37 39 39 40 40 40 40 39 38 38 37 37 37 37 38 39 40 40 41 41 41 40 40 39 38 38 39 40 41 42 42 43 43 44 45 46 47 48 49 50 50 51 51 50 48 46 43 39 36 35 35 35 36 37 39 40 40 41 41 41 40 40 40 40 41 43 45 47 49 52 55 57 60 63 65 67 69 70 70
41 37 34 33 34 35 36 37 38 38 39 38 38 38 37 37 36 36 35 35 36 36 37 38 39 39 39 39 39 39 38 38 38 38 39 40 41 42 42 43 43 44 45 46 47 48 49 50 50 49 48 46 44 41 39 36 35 34 34 35 36 38 39 40 41 41 41 41 40 39 38 38 38 39 39 40 42 44 46 48 50 53 56 58 60 61
37 34 32 32 33 34 36 36 37 37 37 37 36 36 35 35 34 34 33 33 34 35 36 37 37 37 37 38 37 37 37 37 37 38 38 39 40 41 41 42 42 43 44 45 46 47 48 49 49 49 47 45 43 40 38 36 35 35 34 35 36 37 38 39 40 40 41 41 40 39 37 37 36 36 36 36 36 37 38 39 41 43 45 47 49 50
33 31 31 31 33 34 35 36 36 36 36 35 35 34 34 33 32 32 31 31 32 33 34 35 35 35 36 36 36 36 36 36 36 36 37 38 39 39 40 40 41 42 43 44 45 46 47 48 48 48 47 45 43 40 38 36 35 35 35 35 35 36 37 38 39 39 39 39 39 38 37 36 35 34 34 34 34 35 37 39 40 41 43 44 46 46
31 30 30 31 32 33 34 35 35 35 34 34 34 33 33 32 31 30 29 30 31 32 32 33 33 33 34 34 35 35 35 34 34 35 36 36 37 38 39 39 40 41 42 43 44 45 46 47 47 47 47 46 44 41 39 37 36 36 35 35 35 35 36 37 38 38 38 38 38 37 36 35 34 32 32 32 33 34 36 37 38 39 40 41 42 42
29 29 29 30 31 33 33 34 34 33 33 33 33 32 32 31 30 29 28 28 29 30 31 31 31 31 32 32 33 33 34 33 34 34 34 35 36 37 38 38 39 40 41 42 43 45 46 47 47 47 47 46 45 43 41 39 37 36 36 35 35 35 35 36 37 38 38 38 37 37 36 34 32 30 30 30 31 33 34 35 35 34 34 34 35 35
28 28 28 30 31 32 32 33 32 32 32 32 32 31 31 30 29 28 28 28 28 29 30 30 30 30 30 31 31 32 33 33 33 34 34 35 35 36 37 38 39 40 41 42 43 44 45 46 47 47 47 47 47 46 44 42 39 37 36 35 34 34 34 34 35 36 37 37 37 36 35 34 32 30 30 30 32 33 34 34 34 33 33 33 33 33
26 27 28 29 30 31 31 32 31 31 31 31 31 31 30 29 29 28 27 27 28 29 29 29 29 30 30 30 30 31 32 33 33 34 34 35 36 36 37 38 39 40 41 42 43 44 45 45 46 46 47 47 47 47 46 44 42 39 37 35 34 33 33 33 34 35 35 36 36 35 35 34 32 31 31 32 33 34 34 34 34 34 34 34 34 35
25 26 27 28 30 30 31 30 30 30 30 30 30 30 29 29 28 28 27 28 28 29 29 29 29 29 29 30 30 31 32 33 34 34 35 36 36 37 38 38 39 40 41 42 43 43 44 44 45 45 45 46 47 47 46 45 43 41 38 36 34 33 33 33 33 34 34 34 34 33 32 32 31 31 31 31 32 33 33 34 34 34 34 35 35 36
24 25 27 28 29 30 30 29 29 29 29 29 29 29 29 28 28 28 28 28 28 29 29 29 30 30 30 30 30 31 31 32 33 34 35 36 36 37 38 38 39 40 41 41 42 43 43 43 43 43 43 44 44 45 46 45 44 42 40 37 35 33 32 32 33 33 34 33 32 31 30 29 29 29 29 29 29 30 31 31 32 32 33 33 34 34
23 25 27 28 29 29 28 28 28 27 28 28 28 28 28 28 28 27 27 28 28 29 29 29 30 30 31 31 31 31 32 32 33 33 34 35 36 36 37 38 39 40 40 41 42 42 43 42 42 41 41 41 41 42 43 44 44 42 41 38 36 34 32 32 32 33 34 34 32 31 29 28 28 28 28 28 28 28 29 29 29 29 30 30 30 30
24 25 27 28 28 28 27 27 26 26 27 27 27 28 28 28 27 27 27 27 28 28 29 29 30 30 31 31 31 32 32 32 33 33 33 34 34 35 36 37 38 39 40 40 41 42 42 41 40 39 39 39 39 40 41 42 42 42 41 39 37 35 34 33 33 34 34 34 33 31 30 29 29 29 29 29 28 28 28 28 27 27 27 27 26 26
24 26 27 27 27 26 26 26 25 25 26 26 26 26 27 27 27 27 27 27 28 28 28 29 29 29 30 31 31 31 32 32 32 33 33 33 34 34 35 35 36 37 38 39 39 40 40 40 39 38 37 37 37 37 38 39 40 41 40 39 38 37 35 34 34 34 35 35 35 33 32 31 30 30 30 30 30 29 28 28 27 27 26 26 26 26
25 26 26 26 25 25 24 24 24 24 24 25 25 25 25 26 26 26 26 27 27 28 28 28 29 29 29 30 30 31 31 32 32 32 33 33 33 33 34 34 34 35 35 36 37 37 38 38 38 38 37 36 36 36 36 37 38 38 38 38 38 37 36 35 34 34 35 36 36 35 34 33 32 32 32 31 31 31 30 30 30 30 29 29 29 28
25 25 25 25 24 23 23 23 23 23 23 23 23 23 24 24 25 25 26 26 27 27 28 28 29 29 29 30 30 31 31 31 32 32 32 33 33 33 33 33 32 33 33 33 34 34 35 35 36 37 36 36 35 35 35 35 36 36 36 36 35 35 34 33 33 33 34 35 35 35 34 33 32 32 32 32 32 32 32 32 33 33 33 32 32 31
Wind_Direction
296 296 296 296 297 297 297 297 297 297 297 297 297 297 297 297 298 298 299 299 300 300 300 301 301 300 300 300 300 299 298 298 297 296 294 293 292 290 289 288 287 286 286 285 285 285 285 285 285 285 285 285 285 284 284 284 283 283 282 282 281 281 280 280 279 278 277 276 275 274 273 272 271 270 269 267 266 264 262 260 259 257 256 254 253 252
297 297 297 297 297 298 298 297 297 298 298 297 297 297 298 298 298 299 299 300 300 301 301 301 301 301 300 300 299 298 298 297 295 294 293 291 290 289 287 286 286 285 285 285 285 285 285 285 285 285 285 284 284 284 284 283 283 282 282 281 281 280 279 279 278 278 277 276 275 275 274 273 272 271 270 269 268 266 265 263 261 259 258 256 255 253
298 298 298 298 298 298 298 298 298 298 298 298 298 298 299 299 299 300 300 301 301 301 301 301 301 301 300 300 299 298 297 295 294 292 291 290 289 288 287 286 285 285 285 285 285 285 285 285 285 285 285 285 284 284 283 283 282 281 281 280 279 279 278 278 277 277 276 276 275 274 274 273 272 271 270 270 269 268 267 265 264 262 260 258 257 255
299 299 299 298 298 299 299 299 299 298 298 299 299 299 300 300 300 301 301 301 302 302 302 301 301 301 300 299 298 297 295 293 292 291 290 289 288 288 287 286 286 285 285 285 285 285 285 286 286 286 286 286 285 285 285 284 282 281 280 279 278 278 277 276 276 276 275 275 274 274 273 272 271 271 270 270 269 269 268 267 266 265 263 261 259 257
299 299 299 299 299 299 299 299 299 299 299 299 300 300 301 301 301 302 302 302 302 302 302 301 301 300 299 298 297 295 293 292 291 290 289 289 288 288 287 287 286 286 286 286 286 286 286 286 286 287 287 287 287 287 286 285 283 281 280 278 277 277 276 276 275 275 274 274 273 273 272 272 271 270 269 269 269 269 268 268 268 267 265 264 262 260
300 300 300 300 300 300 300 300 300 300 300 300 301 301 302 302 302 303 303 303 303 302 302 301 301 300 299 297 295 293 291 290 290 289 289 289 288 288 287 287 287 287 287 287 287 287 287 287 288 289 290 290 290 289 287 285 283 281 280 278 277 276 276 276 275 275 274 273 273 272 271 271 270 269 269 268 268 268 268 268 268 267 267 266 264 263
301 300 301 301 300 300 301 301 301 301 301 301 302 302 302 303 303 303 303 303 303 302 302 301 300 299 297 295 293 291 290 289 289 288 288 287 287 286 286 286 287 287 287 287 288 288 289 290 292 293 294 294 293 291 288 286 283 281 280 278 278 277 277 276 276 275 274 273 272 271 270 270 269 268 268 267 267 267 267 267 267 267 267 267 266 265
301 301 301 301 301 301 301 302 302 302 302 302 302 303 303 303 303 303 303 303 303 302 301 300 299 297 295 293 291 290 289 288 288 287 286 286 286 285 285 285 285 285 285 286 287 289 292 294 296 298 298 297 296 293 289 286 283 281 280 279 279 278 278 277 276 275 274 273 272 271 270 269 268 268 267 266 266 266 266 266 266 267 267 267 267 267
302 302 302 301 302 302 302 302 302 303 303 303 303 303 303 303 303 303 303 303 303 302 301 299 297 295 293 291 290 290 289 289 288 288 288 287 286 286 286 285 284 283 283 284 286 290 294 297 300 301 301 300 297 294 290 286 284 282 281 280 280 280 279 278 277 276 275 274 273 271 270 269 268 267 266 266 265 265 265 265 265 266 266 266 266 266
302 302 302 302 302 302 303 303 303 303 303 303 304 304 304 304 304 304 303 303 302 301 299 297 295 294 292 291 290 290 290 290 290 290 290 290 290 289 287 286 284 282 281 282 285 289 294 298 300 302 302 301 299 295 290 287 284 283 282 281 281 281 281 280 279 278 276 274 273 272 270 269 268 267 266 265 265 264 264 264 264 265 265 265 265 266
302 302 302 302 302 303 303 303 304 304 304 304 304 304 304 304 304 304 303 303 301 300 297 295 293 293 292 292 291 291 292 292 293 293 293 293 292 291 289 286 283 281 280 281 285 289 293 297 300 301 302 302 299 295 291 287 285 284 283 282 282 282 282 282 281 279 277 276 274 272 271 270 268 267 266 265 264 264 263 263 263 263 264 264 264 264
302 302 302 303 303 304 304 304 304 304 304 304 304 304 304 304 304 303 303 302 300 298 295 293 293 293 293 294 294 294 295 295 296 296 296 296 294 292 289 285 282 279 280 282 285 290 293 296 299 301 302 302 300 297 293 289 286 284 284 283 283 283 283 283 282 281 279 277 275 273 272 270 269 268 266 265 264 263 263 262 262 262 262 262 262 263
302 302 303 303 304 304 304 304 304 304 304 304 304 304 304 304 304 303 302 301 299 296 294 293 293 293 294 295 296 297 298 299 299 299 299 297 295 292 288 284 281 279 280 282 286 290 293 296 298 300 301 302 301 299 295 291 288 286 285 284 284 285 284 284 283 282 280 279 277 275 273 271 270 268 267 265 264 263 262 262 261 261 261 261 261 261
303 303 303 304 304 304 304 304 304 304 304 304 304 304 304 304 303 302 301 299 297 295 294 294 294 295 296 297 299 300 301 301 301 300 300 298 296 293 289 284 281 279 281 284 287 291 293 295 297 298 300 301 301 301 299 296 293 290 289 288 287 287 287 286 285 284 282 281 279 277 275 273 271 269 268 266 265 264 263 262 261 261 260 260 260 260
303 304 304 304 305 305 304 304 304 304 304 304 304 304 304 304 303 301 298 296 295 294 294 295 295 296 298 300 302 303 303 302 302 301 300 299 297 293 289 285 282 281 282 285 288 290 292 294 296 297 299 300 300 301 300 299 297 295 294 293 292 291 290 289 288 287 285 284 283 281 279 277 275 273 270 269 267 265 264 263 262 261 261 260 260 260
303 304 304 304 305 304 304 304 304 303 303 304 304 304 304 303 301 299 296 295 295 295 296 297 298 298 299 301 303 303 304 303 303 302 302 301 298 295 290 286 283 283 283 285 288 290 291 293 295 296 298 298 299 299 300 299 299 298 296 296 295 294 293 292 291 290 289 289 287 286 284 282 279 277 275 272 270 268 267 265 264 263 262 262 261 261
304 304 304 304 304 304 304 304 303 303 303 304 304 304 303 302 299 297 295 295 296 298 299 300 301 302 302 302 303 303 304 304 304 304 304 303 301 297 292 288 285 285 285 286 287 289 290 292 294 295 296 297 298 298 298 298 298 297 297 296 295 295 294 293 292 292 291 291 290 289 288 286 284 281 279 277 274 272 270 268 267 266 265 264 263 263
304 304 304 304 304 304 303 303 303 303 303 304 304 304 302 300 298 296 296 297 299 300 302 302 303 304 304 304 304 304 304 305 305 306 306 306 304 301 296 291 288 287 286 287 287 288 289 291 293 294 295 296 297 297 297 297 296 296 295 295 294 294 293 292 291 290 290 289 289 288 287 286 285 283 281 279 277 275 273 271 270 268 267 266 266 265
304 304 304 304 303 303 303 303 303 303 304 304 304 303 301 298 297 297 298 299 301 302 303 304 304 304 304 304 305 306 306 306 307 308 309 308 306 304 299 294 291 289 288 287 287 288 289 290 292 293 294 295 296 296 296 295 295 294 294 293 292 292 291 291 290 289 288 288 287 287 286 285 283 281 280 279 277 276 275 273 272 271 270 269 268 267
304 304 304 303 303 303 303 303 303 303 304 304 303 301 299 297 297 297 299 301 302 303 303 304 304 304 304 305 307 308 308 308 309 310 310 309 307 305 301 297 294 292 290 289 288 288 289 290 291 293 294 294 295 295 295 294 294 293 292 291 291 290 289 289 288 288 287 287 287 287 287 285 283 281 279 277 276 275 274 274 273 272 271 270 269 269
304 304 303 303 302 302 302 302 303 303 304 303 302 300 298 297 297 298 300 301 302 303 303 303 304 305 306 307 308 309 310 310 311 311 310 309 307 305 302 299 296 294 293 291 290 289 289 290 291 292 293 293 294 294 294 293 293 292 291 290 289 288 288 287 286 286 286 286 286 287 287 287 285 283 280 278 276 275 274 273 272 272 271 270 270 269
303 303 303 302 301 301 301 302 303 303 303 302 300 298 297 297 297 299 300 301 302 303 303 304 305 306 308 309 310 311 311 312 312 312 311 308 306 304 302 300 298 296 295 294 292 291 290 290 290 291 291 292 292 292 292 292 291 291 290 289 288 287 286 286 285 285 284 284 284 285 286 287 288 287 285 282 280 277 275 274 273 272 271 270 269 268
302 302 301 300 300 300 300 301 302 302 301 300 298 297 296 297 298 299 301 302 303 304 305 305 306 308 309 310 311 312 313 313 313 312 311 309 307 306 304 302 300 299 298 297 295 293 292 291 291 290 290 290 290 290 290 290 290 289 289 288 287 286 285 285 284 283 282 282 282 283 285 287 288 289 288 288 286 284 281 279 276 274 272 271 269 268
300 300 299 298 298 298 299 300 301 301 299 297 296 295 295 297 299 301 302 304 305 305 306 306 307 309 310 311 311 312 313 314 314 313 311 310 309 308 307 306 304 302 302 300 298 296 294 293 292 291 290 289 289 289 289 289 289 288 288 287 287 286 285 284 283 281 280 280 281 282 283 285 286 286 286 287 287 286 285 284 281 279 277 274 272 270
299 298 297 297 297 298 299 300 300 300 298 296 295 295 296 298 300 302 304 305 306 306 306 307 308 309 311 311 312 313 314 315 314 313 312 311 311 312 312 310 308 307 306 304 302 300 298 296 294 293 291 290 290 289 289 289 288 288 288 287 286 285 284 283 282 280 279 279 279 280 281 283 284 284 284 284 283 283 283 283 282 281 280 278 276 274
297 297 296 297 297 298 299 300 300 299 297 297 297 298 299 301 302 304 305 306 306 306 306 307 308 309 311 312 313 314 315 315 315 314 312 312 313 315 315 313 312 311 311 310 308 305 303 301 298 296 294 292 291 290 289 289 289 288 288 287 286 285 284 282 281 280 278 278 278 279 280 281 281 282 282 282 282 281 280 279 279 279 278 278 277 276
296 295 296 296 297 298 300 300 299 298 297 298 299 300 302 303 304 305 305 306 305 306 306 307 308 310 311 313 314 316 316 317 316 314 312 313 315 317 317 315 314 315 315 315 314 312 310 308 305 302 299 296 294 292 291 290 289 288 287 286 285 284 283 281 280 278 277 277 277 277 278 278 279 280 280 281 280 280 278 277 276 276 275 275 275 275
294 294 295 296 297 299 299 299 298 297 297 299 300 302 303 304 304 304 305 305 305 305 306 307 308 310 312 314 316 317 318 318 316 314 313 314 316 318 318 317 316 317 318 320 320 320 319 317 314 310 306 302 299 296 293 291 290 288 287 286 285 283 282 280 278 277 276 275 275 275 275 276 277 278 278 279 279 278 278 277 276 275 274 273 273 273
293 293 294 296 297 298 298 298 297 297 298 299 301 302 303 303 303 304 304 304 304 305 306 307 309 312 314 315 316 317 318 318 316 315 314 315 317 318 318 318 318 319 321 322 324 325 325 323 321 318 315 311 307 302 299 295 292 290 288 286 285 283 282 280 278 276 274 273 273 273 273 274 274 275 276 276 277 277 277 276 276 275 274 273 272 272
292 293 294 296 297 297 297 296 295 296 298 300 301 302 303 303 303 303 304 304 305 305 307 308 310 313 315 316 317 318 319 318 317 316 316 317 319 319 319 319 320 322 323 324 326 327 327 327 325 322 320 317 314 310 306 301 297 293 290 288 285 284 282 280 278 276 274 272 271 271 271 271 271 272 273 274 274 275 275 275 275 274 274 273 272 272
291 292 294 295 296 296 295 294 294 296 298 299 301 301 302 302 302 303 304 304 305 306 307 309 311 313 315 316 317 318 319 319 318 318 318 319 320 320 320 321 322 324 325 326 327 327 328 328 327 325 323 321 318 315 311 307 303 299 295 292 289 286 284 281 279 277 274 273 271 270 269 269 269 269 270 270 271 272 272 273 273 273 273 273 273 272
291 292 294 295 294 293 292 292 294 296 298 299 300 301 301 302 302 303 304 305 306 307 308 310 312 313 315 316 317 318 319 320 320 319 319 320 321 321 322 323 324 325 326 327 328 328 329 329 328 327 325 323 321 318 315 311 307 303 300 296 293 290 287 284 281 278 276 274 272 270 269 268 268 268 268 268 268 269 270 270 271 272 272 273 273 273
291 293 294 294 293 291 291 292 294 296 298 299 300 301 301 301 302 303 304 305 306 307 309 310 312 314 315 316 317 318 320 321 321 321 321 321 322 322 323 324 325 326 327 328 329 329 330 330 330 329 327 325 323 321 318 315 311 307 304 301 298 295 291 288 285 282 279 276 274 272 270 269 268 268 267 267 267 267 268 268 269 270 271 272 273 273
292 293 293 292 291 290 291 293 295 297 298 299 300 300 300 301 302 304 305 306 307 308 310 312 314 315 316 316 317 318 320 322 323 323 323 323 323 324 324 326 327 328 329 330 331 331 332 332 332 331 329 327 326 323 321 318 315 312 309 307 304 301 298 294 290 287 284 280 278 275 273 271 269 268 268 267 267 267 267 267 268 269 269 271 272 273
292 293 292 290 289 289 291 294 296 297 299 300 300 300 301 302 303 305 306 307 308 309 311 313 315 316 317 317 318 320 322 323 325 325 325 325 325 325 326 327 328 329 330 332 332 333 333 333 333 332 331 329 328 326 323 321 318 316 314 312 311 309 307 303 299 295 291 286 283 279 276 274 272 270 269 268 267 267 267 267 267 268 269 269 271 272
292 292 290 288 288 290 292 295 297 298 299 299 300 300 301 303 304 306 307 308 309 311 313 316 317 318 318 319 320 321 324 326 327 328 327 327 327 327 328 329 331 331 332 333 333 334 334 334 334 333 332 331 330 328 325 322 320 318 317 316 316 315 314 312 309 305 301 296 291 286 282 279 276 274 272 271 270 269 268 268 268 268 268 269 270 271
291 290 288 287 289 291 293 296 297 298 299 299 300 301 302 304 305 306 307 308 311 313 316 318 319 319 319 320 321 323 325 327 329 330 330 329 328 329 330 332 333 333 333 334 334 334 334 335 335 335 334 334 332 330 328 324 321 320 319 319 319 319 319 318 316 314 312 308 303 297 291 286 282 279 277 275 274 273 272 271 270 270 270 270 270 271
289 287 286 287 289 292 294 296 297 298 299 299 300 302 304 305 306 307 308 310 313 316 318 320 320 320 320 321 323 325 327 329 331 332 331 331 330 331 332 333 334 334 334 334 334 334 335 336 337 337 337 337 336 334 331 327 324 321 321 321 321 322 322 322 321 320 319 317 313 308 302 296 290 286 283 281 280 279 278 277 276 275 274 274 273 273
287 285 285 288 291 293 295 297 298 298 299 300 301 303 305 306 307 308 309 312 316 318 320 321 321 321 322 323 324 326 329 331 333 333 333 332 333 333 334 335 335 335 334 334 334 334 335 337 338 339 340 340 339 338 334 331 327 324 323 323 324 324 324 324 324 324 324 322 320 316 311 305 299 294 290 288 287 286 286 285 284 282 281 280 279 278
284 284 286 289 292 294 296 297 298 298 299 301 302 304 305 306 307 308 310 314 317 320 321 322 322 323 324 325 326 328 330 333 334 335 334 334 334 335 335 335 335 335 334 334 334 334 336 338 339 341 342 343 343 342 339 336 331 328 327 326 327 328 328 328 327 327 327 326 324 321 318 313 307 302 298 296 295 294 293 292 290 287 285 284 283 282
282 284 287 290 293 295 296 297 298 299 300 302 303 305 306 306 307 308 311 315 318 320 321 322 323 324 325 326 328 330 332 334 335 335 335 336 336 336 336 336 335 335 334 334 334 335 336 338 341 343 344 345 346 345 344 341 337 334 331 331 331 332 332 331 331 330 330 328 327 324 321 318 313 309 305 304 304 303 303 301 298 296 293 290 289 287
281 284 288 291 294 296 297 298 299 300 301 303 304 305 306 307 308 309 312 315 318 319 320 321 323 325 326 327 329 330 332 334 335 335 336 336 336 336 336 336 336 335 335 335 335 336 337 339 341 343 345 346 347 347 346 345 342 339 336 335 335 336 336 335 334 334 333 332 330 328 325 321 317 313 311 311 312 313 313 312 311 308 306 303 301 298
281 285 290 293 295 296 297 298 299 301 302 303 305 306 307 308 309 310 313 315 317 318 319 320 322 324 326 327 329 330 332 333 334 334 335 335 336 336 336 336 336 336 336 336 336 337 338 340 342 344 345 346 347 347 347 346 344 341 339 338 338 338 338 338 338 337 336 335 333 331 329 325 321 317 315 315 317 317 318 317 317 315 313 311 309 306
282 287 291 294 296 297 298 299 300 301 302 304 306 307 308 309 310 311 313 315 316 317 318 319 320 322 324 326 328 329 331 332 332 333 333 334 335 335 336 336 336 336 336 336 337 337 338 340 342 344 345 346 346 346 345 345 344 343 341 341 340 340 341 341 342 341 340 339 337 335 332 329 325 322 319 317 317 317 316 315 314 313 311 309 307 304
283 288 292 295 296 298 299 299 300 301 303 305 307 308 309 310 311 312 314 315 316 316 317 318 319 321 323 325 327 328 329 330 331 331 332 333 333 334 335 335 336 336 336 337 337 337 338 340 342 344 345 345 345 345 344 344 343 343 343 343 344 344 345 346 347 347 345 344 342 339 337 334 331 327 324 321 319 317 315 314 312 310 308 306 304 302
285 291 294 296 298 298 299 299 300 302 304 306 308 309 310 311 312 313 314 315 316 316 316 317 318 320 322 324 325 327 328 328 329 329 330 330 331 332 333 334 335 335 336 337 337 337 338 340 342 343 345 345 344 344 343 343 343 344 345 346 347 348 350 351 352 352 351 350 348 346 344 342 339 336 332 329 326 322 320 317 315 313 311 309 308 306
289 293 296 298 298 299 299 299 301 303 305 307 309 310 311 312 313 314 315 316 316 317 317 318 319 321 323 324 325 326 326 327 327 327 328 329 330 331 332 333 334 335 336 337 337 337 337 338 340 342 343 344 344 344 343 343 344 345 346 348 350 351 353 355 356 357 357 356 355 354 353 351 348 344 340 337 334 331 328 326 324 322 320 319 318 317
293 296 297 298 298 298 299 300 302 304 307 309 310 311 313 313 314 315 316 317 318 318 319 320 321 322 324 325 326 326 326 326 326 327 328 329 330 331 332 334 334 335 336 336 336 335 335 336 337 340 341 343 344 344 344 345 345 346 347 349 351 353 355 357 359 0 0 360 359 359 358 357 353 349 345 342 340 338 336 335 334 332 331 330 329 327
295 296 297 297 297 298 298 300 303 305 308 309 311 313 314 315 316 317 318 319 320 321 321 322 323 324 325 326 326 327 327 327 327 328 329 330 331 333 334 334 335 335 335 335 334 333 333 333 335 337 340 342 343 345 346 347 348 349 349 350 351 352 354 357 359 2 2 2 1 1 360 358 356 353 350 347 345 343 342 341 340 339 338 336 334 331
295 296 297 296 296 297 299 301 304 306 309 311 312 314 315 316 318 319 321 322 323 323 324 324 325 326 326 327 327 327 328 328 329 330 331 332 333 334 335 335 335 334 334 333 332 331 331 332 333 335 338 340 343 345 348 350 351 352 352 352 352 352 353 354 357 0 2 2 1 0 359 356 354 352 349 346 344 342 340 338 337 336 335 333 331 329
295 295 295 296 296 298 300 303 305 307 310 312 313 315 317 318 320 322 323 324 324 325 325 326 326 327 327 327 328 328 329 329 330 331 332 333 333 334 335 335 334 333 332 331 330 330 330 331 332 334 336 339 342 345 349 352 354 355 355 355 354 354 353 353 354 357 360 1 1 359 356 353 350 347 344 342 339 337 334 331 329 329 329 328 327 325
Height
5611 5609 5608 5605 5603 5601 5599 5598 5595 5592 5589 5588 5586 5584 5581 5578 5575 5573 5570 5567 5564 5561 5559 5556 5554 5551 5548 5545 5541 5537 5533 5528 5524 5521 5517 5514 5511 5507 5504 5501 5499 5496 5494 5492 5490 5488 5487 5485 5484 5483 5481 5480 5479 5478 5478 5477 5476 5474 5473 5472 5471 5470 5469 5468 5467 5466 5466 5465 5465 5464 5464 5464 5464 5464 5464 5465 5465 5466 5467 5468 5468 5470 5471 5473 5475 5478
5605 5603 5602 5599 5597 5595 5593 5591 5589 5586 5583 5581 5579 5577 5574 5571 5568 5566 5563 5561 5558 5554 5552 5549 5546 5543 5540 5537 5533 5529 5525 5520 5517 5513 5510 5507 5504 5501 5498 5495 5493 5490 5488 5486 5484 5482 5480 5479 5477 5476 5474 5473 5472 5471 5470 5469 5468 5467 5466 5464 5463 5462 5461 5460 5459 5458 5458 5457 5456 5456 5456 5456 5456 5456 5456 5456 5457 5457 5458 5458 5459 5460 5461 5463 5464 5466
5600 5597 5596 5594 5591 5589 5587 5584 5582 5580 5577 5574 5572 5569 5567 5564 5562 5559 5556 5554 5551 5548 5544 5541 5538 5535 5532 5528 5525 5521 5517 5513 5509 5507 5504 5501 5498 5495 5492 5489 5487 5485 5483 5481 5478 5477 5475 5473 5471 5469 5468 5466 5465 5463 5462 5461 5460 5459 5458 5456 5455 5453 5453 5451 5450 5449 5449 5448 5448 5447 5447 5447 5447 5448 5448 5448 5448 5449 5449 5450 5450 5451 5452 5453 5454 5456
5594 5591 5589 5588 5585 5583 5581 5578 5575 5573 5570 5568 5565 5563 5560 5557 5554 5552 5549 5546 5543 5540 5537 5533 5530 5527 5523 5520 5517 5513 5510 5507 5503 5501 5498 5495 5492 5489 5486 5483 5481 5479 5477 5475 5473 5471 5469 5467 5465 5463 5461 5459 5458 5456 5454 5453 5452 5450 5449 5448 5446 5445 5444 5443 5442 5441 5440 5439 5439 5439 5438 5439 5439 5439 5439 5440 5440 5441 5441 5442 5442 5443 5443 5444 5445 5446
5589 5585 5582 5580 5579 5577 5574 5572 5569 5566 5563 5560 5558 5556 5553 5550 5547 5544 5542 5539 5535 5532 5528 5525 5522 5518 5515 5511 5508 5506 5503 5501 5498 5495 5493 5490 5487 5484 5481 5478 5475 5473 5471 5469 5467 5465 5463 5461 5459 5457 5455 5453 5451 5449 5447 5445 5443 5441 5440 5438 5437 5436 5435 5434 5433 5432 5431 5431 5431 5430 5430 5430 5430 5431 5431 5432 5433 5433 5434 5434 5434 5435 5436 5436 5437 5437
5583 5580 5576 5573 5571 5570 5568 5565 5562 5559 5555 5553 5551 5549 5546 5543 5539 5537 5534 5531 5527 5524 5520 5517 5513 5510 5507 5503 5501 5499 5497 5495 5493 5491 5488 5485 5482 5479 5476 5473 5470 5468 5465 5463 5461 5459 5457 5455 5453 5451 5448 5446 5444 5441 5439 5437 5434 5433 5431 5429 5428 5427 5426 5425 5424 5423 5423 5422 5422 5422 5422 5422 5422 5423 5423 5424 5424 5425 5426 5426 5427 5428 5428 5428 5429 5429
5575 5573 5570 5567 5564 5562 5561 5558 5555 5551 5548 5545 5543 5541 5539 5536 5533 5529 5526 5523 5519 5515 5512 5508 5505 5503 5500 5497 5495 5493 5492 5490 5488 5486 5483 5480 5477 5474 5471 5468 5466 5463 5461 5458 5456 5453 5451 5449 5447 5444 5442 5439 5436 5434 5431 5428 5426 5424 5422 5421 5420 5418 5418 5417 5416 5415 5414 5414 5413 5413 5413 5413 5414 5414 5415 5416 5416 5417 5418 5419 5420 5420 5420 5421 5421 5422
5566 5565 5564 5561 5558 5556 5554 5552 5549 5545 5541 5537 5535 5533 5531 5528 5525 5522 5519 5516 5512 5507 5503 5501 5498 5496 5494 5491 5489 5487 5486 5484 5483 5480 5478 5475 5472 5469 5466 5464 5462 5459 5457 5454 5451 5448 5445 5443 5440 5438 5435 5432 5429 5426 5423 5420 5418 5416 5414 5413 5411 5410 5409 5408 5408 5407 5406 5406 5405 5405 5405 5405 5405 5406 5407 5408 5408 5409 5410 5411 5412 5413 5413 5413 5414 5414
5559 5558 5556 5555 5552 5549 5547 5545 5542 5538 5534 5530 5527 5524 5522 5520 5517 5514 5512 5509 5505 5501 5496 5493 5491 5490 5488 5486 5484 5482 5480 5478 5476 5474 5471 5468 5465 5463 5461 5459 5457 5455 5453 5450 5447 5444 5441 5437 5434 5431 5428 5425 5422 5418 5415 5413 5410 5408 5406 5405 5403 5402 5401 5400 5400 5399 5398 5398 5397 5397 5397 5397 5397 5398 5399 5400 5401 5402 5403 5404 5405 5405 5406 5406 5407 5407
5552 5551 5549 5548 5546 5543 5540 5538 5535 5532 5528 5523 5520 5516 5513 5511 5508 5505 5503 5502 5499 5495 5490 5487 5484 5483 5482 5481 5479 5477 5474 5472 5470 5468 5465 5462 5459 5457 5454 5453 5451 5449 5448 5445 5443 5440 5437 5433 5429 5426 5423 5419 5416 5412 5409 5406 5403 5401 5399 5397 5396 5394 5393 5393 5392 5392 5391 5390 5390 5389 5389 5389 5390 5390 5391 5392 5393 5394 5395 5396 5397 5398 5398 5399 5399 5400
5546 5544 5542 5541 5539 5537 5533 5530 5528 5524 5521 5517 5513 5509 5506 5502 5499 5497 5495 5493 5492 5490 5486 5482 5480 5478 5476 5475 5473 5472 5469 5466 5464 5462 5460 5456 5453 5450 5448 5447 5445 5444 5442 5440 5438 5436 5433 5430 5426 5422 5418 5414 5411 5407 5403 5400 5397 5395 5393 5391 5389 5387 5386 5385 5384 5384 5383 5383 5383 5383 5382 5382 5383 5383 5384 5385 5386 5387 5388 5388 5389 5390 5390 5391 5391 5392
5539 5537 5535 5533 5532 5529 5526 5523 5520 5517 5513 5510 5506 5503 5499 5496 5492 5489 5487 5485 5484 5483 5480 5478 5476 5474 5472 5469 5467 5465 5463 5460 5458 5455 5453 5450 5447 5444 5442 5441 5440 5438 5436 5434 5433 5431 5428 5425 5422 5418 5415 5410 5406 5402 5398 5395 5393 5390 5388 5385 5383 5381 5379 5378 5377 5376 5376 5376 5375 5375 5375 5375 5376 5376 5377 5377 5378 5379 5380 5381 5381 5382 5382 5383 5383 5384
5533 5531 5528 5527 5524 5522 5519 5516 5513 5509 5506 5503 5499 5496 5493 5490 5486 5483 5480 5478 5477 5476 5474 5473 5472 5470 5468 5465 5461 5458 5456 5454 5452 5450 5448 5445 5441 5438 5435 5434 5434 5433 5431 5429 5428 5426 5423 5420 5417 5414 5411 5407 5402 5398 5394 5391 5388 5385 5383 5380 5378 5375 5373 5371 5369 5369 5368 5368 5368 5368 5368 5368 5368 5369 5369 5370 5370 5371 5372 5373 5373 5374 5374 5375 5375 5376
5526 5524 5522 5519 5518 5515 5512 5508 5505 5502 5499 5496 5492 5489 5486 5483 5481 5478 5474 5472 5471 5471 5470 5468 5467 5466 5464 5461 5457 5453 5450 5448 5447 5445 5443 5441 5437 5433 5429 5428 5428 5428 5426 5424 5422 5420 5418 5414 5411 5409 5406 5403 5399 5395 5391 5387 5384 5381 5378 5375 5372 5370 5367 5365 5363 5362 5361 5361 5361 5361 5361 5361 5361 5361 5362 5362 5363 5363 5364 5365 5365 5366 5367 5367 5368 5368
5520 5517 5515 5513 5510 5508 5505 5501 5498 5495 5492 5489 5486 5483 5480 5478 5475 5472 5469 5467 5466 5466 5465 5463 5462 5461 5460 5457 5452 5447 5444 5442 5441 5440 5438 5436 5433 5428 5424 5422 5422 5423 5421 5418 5416 5413 5412 5408 5405 5403 5400 5398 5394 5391 5388 5384 5381 5378 5374 5371 5368 5365 5362 5360 5358 5356 5354 5354 5353 5353 5353 5353 5353 5354 5354 5355 5355 5356 5356 5357 5358 5358 5359 5359 5360 5361
5513 5511 5508 5506 5503 5501 5498 5495 5491 5488 5485 5483 5480 5478 5475 5472 5470 5467 5465 5463 5462 5460 5459 5458 5455 5454 5454 5453 5449 5444 5439 5436 5436 5435 5433 5431 5429 5425 5420 5417 5416 5417 5416 5413 5410 5407 5405 5402 5399 5397 5394 5392 5389 5386 5383 5380 5378 5374 5371 5368 5365 5362 5359 5356 5353 5351 5349 5348 5347 5346 5346 5346 5346 5346 5347 5347 5348 5348 5349 5350 5350 5351 5352 5352 5353 5353
5507 5505 5502 5499 5497 5494 5492 5489 5485 5482 5479 5477 5474 5472 5470 5467 5465 5463 5460 5459 5457 5456 5454 5453 5450 5448 5447 5447 5446 5443 5436 5431 5430 5429 5428 5427 5424 5421 5416 5412 5411 5411 5410 5408 5405 5401 5399 5396 5394 5391 5388 5386 5383 5381 5378 5376 5373 5370 5368 5365 5362 5359 5356 5354 5351 5348 5346 5344 5342 5341 5340 5339 5338 5338 5339 5339 5340 5341 5341 5342 5343 5343 5344 5344 5345 5345
5501 5499 5496 5493 5490 5488 5486 5483 5479 5476 5473 5471 5469 5467 5465 5463 5460 5458 5456 5455 5453 5451 5449 5448 5446 5444 5441 5439 5440 5439 5434 5428 5424 5423 5423 5421 5419 5417 5412 5408 5406 5405 5404 5402 5399 5396 5393 5391 5388 5386 5383 5381 5378 5376 5373 5370 5368 5365 5363 5360 5358 5356 5353 5351 5349 5347 5344 5342 5340 5338 5336 5334 5333 5332 5331 5331 5332 5332 5333 5333 5334 5335 5335 5336 5337 5337
5495 5493 5490 5486 5483 5481 5479 5477 5474 5471 5468 5465 5463 5462 5460 5458 5457 5454 5452 5450 5448 5447 5445 5443 5441 5439 5438 5435 5434 5433 5429 5423 5419 5418 5417 5415 5414 5412 5408 5403 5401 5399 5398 5397 5394 5391 5388 5385 5383 5381 5378 5376 5373 5371 5368 5366 5363 5361 5358 5356 5353 5351 5349 5347 5345 5343 5341 5339 5337 5335 5333 5331 5329 5327 5325 5324 5324 5324 5324 5325 5326 5326 5327 5327 5328 5328
5489 5487 5484 5481 5477 5474 5473 5471 5469 5466 5463 5460 5458 5457 5456 5454 5453 5451 5449 5447 5445 5443 5441 5439 5437 5435 5433 5431 5429 5428 5424 5419 5415 5413 5412 5410 5409 5407 5403 5399 5396 5395 5393 5392 5389 5386 5383 5380 5378 5376 5373 5371 5368 5366 5363 5361 5358 5356 5353 5351 5349 5347 5344 5343 5340 5339 5337 5335 5333 5331 5329 5327 5325 5323 5320 5319 5318 5317 5317 5317 5318 5318 5318 5319 5319 5320
5483 5481 5478 5475 5472 5469 5467 5466 5464 5462 5458 5456 5453 5452 5451 5450 5448 5447 5445 5444 5442 5439 5438 5435 5433 5431 5429 5427 5424 5422 5419 5414 5410 5408 5406 5405 5404 5402 5399 5394 5391 5390 5389 5387 5384 5381 5378 5375 5373 5371 5368 5366 5363 5361 5358 5356 5353 5351 5349 5347 5344 5342 5339 5338 5335 5334 5332 5330 5328 5327 5325 5323 5320 5318 5316 5314 5312 5311 5310 5310 5310 5311 5311 5311 5312 5312
5476 5474 5472 5470 5467 5464 5462 5461 5459 5458 5455 5452 5450 5448 5447 5446 5444 5443 5442 5440 5438 5436 5433 5431 5428 5427 5425 5422 5419 5417 5414 5409 5405 5403 5401 5399 5398 5398 5395 5390 5387 5385 5384 5383 5380 5376 5373 5370 5368 5366 5363 5361 5358 5356 5353 5351 5348 5346 5344 5342 5339 5337 5335 5332 5330 5328 5327 5325 5323 5322 5320 5318 5316 5314 5311 5309 5308 5306 5305 5304 5304 5304 5304 5304 5304 5304
5470 5469 5467 5465 5463 5460 5458 5457 5455 5453 5451 5449 5447 5445 5444 5443 5441 5439 5438 5437 5434 5431 5429 5427 5425 5423 5421 5418 5415 5412 5410 5406 5402 5398 5396 5394 5393 5393 5391 5386 5383 5381 5380 5378 5374 5371 5368 5366 5363 5361 5359 5357 5354 5351 5348 5345 5343 5341 5338 5336 5334 5332 5329 5327 5325 5323 5321 5320 5318 5317 5315 5313 5311 5309 5307 5305 5303 5302 5300 5299 5298 5298 5298 5298 5297 5297
5466 5464 5462 5461 5459 5457 5454 5453 5451 5450 5448 5446 5444 5443 5441 5439 5438 5436 5434 5433 5430 5427 5424 5422 5420 5419 5417 5415 5412 5408 5406 5402 5398 5394 5392 5389 5388 5387 5386 5382 5379 5376 5375 5373 5369 5366 5363 5362 5359 5357 5354 5352 5350 5347 5343 5341 5338 5335 5333 5331 5328 5326 5324 5322 5320 5318 5316 5314 5312 5311 5309 5308 5306 5304 5302 5301 5299 5298 5296 5295 5294 5293 5292 5291 5291 5291
5462 5460 5458 5457 5455 5453 5451 5449 5448 5445 5443 5442 5440 5438 5437 5436 5434 5432 5430 5428 5425 5423 5420 5418 5417 5415 5413 5411 5408 5405 5402 5399 5394 5390 5387 5385 5384 5383 5382 5378 5374 5372 5371 5369 5365 5362 5358 5357 5355 5353 5350 5347 5345 5342 5339 5336 5333 5331 5328 5326 5323 5321 5318 5316 5314 5312 5310 5308 5307 5305 5303 5302 5300 5299 5297 5296 5294 5293 5292 5291 5289 5288 5287 5286 5285 5285
5458 5456 5454 5452 5450 5448 5447 5445 5443 5441 5439 5438 5436 5434 5433 5431 5430 5428 5427 5424 5422 5419 5417 5415 5413 5411 5409 5407 5404 5401 5398 5395 5391 5387 5383 5380 5379 5379 5378 5374 5370 5368 5366 5364 5362 5358 5354 5353 5351 5348 5346 5343 5340 5337 5334 5332 5329 5326 5323 5321 5318 5316 5313 5311 5309 5307 5304 5303 5301 5299 5298 5296 5295 5293 5292 5291 5289 5288 5287 5286 5285 5283 5283 5281 5280 5280
5453 5451 5449 5448 5446 5444 5443 5441 5440 5438 5436 5435 5433 5431 5429 5427 5426 5425 5423 5421 5419 5416 5414 5412 5409 5408 5406 5403 5400 5397 5394 5391 5387 5383 5379 5377 5375 5374 5373 5370 5367 5364 5362 5360 5358 5354 5351 5348 5346 5344 5341 5338 5335 5333 5330 5327 5324 5321 5318 5316 5313 5311 5308 5306 5303 5301 5299 5297 5295 5293 5292 5290 5289 5288 5287 5286 5284 5283 5282 5281 5280 5278 5277 5276 5275 5275
5449 5447 5445 5444 5442 5441 5439 5438 5436 5435 5433 5432 5430 5428 5427 5425 5423 5421 5419 5418 5416 5413 5411 5409 5406 5403 5401 5399 5396 5394 5391 5388 5383 5379 5376 5374 5372 5370 5369 5366 5363 5361 5358 5356 5354 5351 5348 5344 5342 5339 5337 5334 5331 5328 5325 5322 5319 5316 5313 5311 5308 5305 5303 5300 5298 5296 5293 5292 5290 5288 5287 5285 5284 5283 5281 5280 5279 5278 5277 5276 5274 5273 5272 5271 5270 5269
5446 5444 5442 5441 5439 5438 5436 5435 5433 5432 5431 5429 5428 5426 5424 5422 5420 5418 5416 5415 5413 5410 5408 5405 5403 5400 5397 5394 5392 5390 5388 5384 5380 5376 5373 5371 5369 5367 5365 5363 5360 5357 5354 5351 5349 5348 5345 5342 5338 5334 5332 5329 5327 5323 5320 5317 5314 5311 5308 5305 5303 5300 5298 5295 5293 5290 5288 5286 5284 5283 5281 5280 5278 5277 5276 5274 5273 5273 5272 5270 5269 5268 5266 5265 5264 5263
5442 5441 5439 5438 5436 5435 5433 5432 5431 5429 5428 5427 5425 5423 5421 5419 5418 5415 5413 5412 5409 5407 5404 5402 5399 5397 5393 5391 5388 5387 5385 5382 5377 5373 5370 5368 5366 5364 5362 5359 5356 5353 5350 5347 5344 5343 5343 5340 5336 5331 5328 5325 5322 5319 5316 5313 5309 5306 5303 5300 5298 5295 5292 5290 5287 5285 5283 5281 5279 5278 5276 5274 5273 5271 5270 5269 5268 5267 5266 5265 5263 5262 5260 5259 5258 5258
5440 5438 5436 5435 5433 5432 5430 5429 5428 5427 5426 5424 5423 5421 5419 5417 5415 5413 5410 5408 5406 5403 5401 5398 5396 5394 5391 5388 5385 5383 5382 5379 5375 5370 5367 5364 5363 5361 5358 5355 5353 5350 5347 5343 5341 5338 5336 5336 5334 5329 5324 5321 5318 5315 5311 5308 5304 5301 5298 5294 5292 5289 5287 5284 5282 5279 5277 5275 5273 5272 5270 5268 5267 5266 5264 5263 5262 5261 5260 5258 5258 5256 5254 5253 5252 5251
5437 5435 5433 5432 5430 5429 5428 5427 5426 5424 5423 5422 5420 5418 5416 5414 5412 5410 5408 5405 5403 5401 5398 5396 5393 5391 5388 5385 5382 5380 5378 5375 5372 5368 5364 5361 5359 5358 5355 5352 5349 5347 5344 5341 5338 5335 5331 5329 5328 5326 5322 5318 5313 5310 5307 5303 5299 5296 5292 5289 5287 5284 5282 5279 5276 5273 5272 5270 5268 5266 5265 5263 5261 5260 5259 5258 5256 5255 5254 5253 5252 5250 5248 5246 5245 5244
5433 5432 5430 5429 5428 5426 5425 5424 5423 5422 5420 5419 5417 5415 5413 5412 5409 5407 5405 5403 5400 5398 5396 5393 5390 5388 5385 5383 5379 5377 5374 5371 5368 5364 5361 5359 5356 5354 5352 5349 5346 5343 5341 5338 5335 5332 5329 5325 5322 5320 5317 5313 5309 5305 5301 5298 5294 5291 5288 5284 5282 5279 5277 5274 5271 5268 5266 5264 5263 5261 5259 5258 5256 5255 5253 5252 5251 5250 5248 5247 5246 5244 5243 5240 5238 5237
5430 5428 5427 5426 5425 5423 5423 5421 5420 5419 5418 5416 5414 5413 5411 5409 5407 5405 5402 5400 5397 5395 5393 5390 5388 5384 5382 5379 5376 5374 5371 5368 5365 5361 5358 5356 5353 5351 5349 5346 5343 5339 5337 5334 5331 5328 5325 5322 5319 5315 5311 5308 5305 5301 5296 5292 5289 5286 5283 5280 5277 5274 5272 5269 5266 5263 5261 5259 5257 5255 5254 5252 5251 5249 5248 5247 5245 5244 5243 5242 5240 5239 5237 5235 5233 5231
5427 5425 5424 5423 5422 5421 5420 5419 5417 5416 5414 5413 5411 5410 5408 5406 5404 5402 5399 5397 5395 5392 5390 5387 5384 5381 5378 5375 5373 5370 5368 5365 5362 5358 5356 5353 5351 5348 5346 5343 5340 5336 5333 5330 5328 5325 5322 5319 5316 5312 5308 5304 5301 5297 5293 5289 5285 5282 5279 5276 5273 5270 5267 5265 5262 5259 5256 5254 5252 5250 5248 5246 5245 5243 5242 5241 5240 5238 5237 5236 5235 5233 5232 5230 5228 5227
5423 5422 5421 5420 5419 5418 5417 5416 5415 5413 5412 5410 5408 5407 5405 5403 5401 5399 5397 5394 5392 5389 5387 5384 5382 5378 5375 5372 5369 5366 5364 5362 5359 5356 5353 5351 5348 5346 5343 5340 5337 5333 5330 5327 5325 5323 5319 5317 5313 5310 5305 5301 5297 5294 5291 5287 5283 5280 5277 5273 5270 5267 5264 5261 5258 5254 5252 5249 5247 5245 5243 5241 5239 5238 5237 5236 5234 5233 5232 5231 5230 5228 5227 5225 5223 5221
5420 5419 5418 5417 5416 5415 5414 5413 5412 5410 5409 5407 5406 5404 5402 5400 5398 5396 5394 5392 5389 5387 5384 5382 5379 5376 5373 5369 5366 5363 5361 5358 5356 5353 5351 5348 5346 5343 5340 5337 5334 5331 5328 5325 5322 5319 5317 5314 5311 5308 5303 5299 5294 5291 5288 5285 5282 5278 5275 5272 5268 5265 5262 5258 5254 5251 5248 5245 5243 5241 5238 5236 5235 5233 5232 5231 5230 5228 5227 5226 5225 5223 5222 5220 5218 5216
5417 5416 5415 5414 5413 5412 5411 5410 5409 5408 5406 5404 5403 5401 5399 5397 5395 5393 5391 5389 5387 5384 5382 5379 5377 5373 5370 5367 5364 5361 5358 5356 5353 5351 5348 5346 5343 5341 5338 5335 5332 5329 5326 5323 5320 5317 5315 5312 5309 5305 5302 5298 5293 5289 5285 5282 5279 5277 5274 5271 5267 5263 5259 5256 5252 5248 5245 5242 5239 5237 5234 5232 5230 5229 5228 5227 5225 5224 5223 5222 5221 5219 5217 5215 5213 5211
5413 5413 5412 5411 5410 5409 5408 5407 5406 5404 5403 5402 5400 5398 5396 5395 5393 5391 5389 5386 5384 5382 5379 5377 5374 5372 5368 5365 5362 5359 5356 5353 5351 5348 5346 5344 5341 5338 5336 5333 5330 5327 5324 5322 5319 5316 5313 5310 5307 5303 5299 5295 5291 5287 5284 5280 5277 5274 5271 5268 5265 5262 5258 5253 5250 5246 5243 5240 5237 5234 5232 5229 5227 5225 5224 5223 5222 5221 5219 5218 5217 5215 5213 5210 5208 5206
5410 5410 5409 5408 5407 5406 5405 5404 5403 5401 5400 5398 5397 5395 5394 5392 5390 5388 5386 5384 5382 5380 5378 5375 5373 5370 5367 5363 5360 5357 5354 5352 5349 5347 5344 5342 5339 5337 5334 5332 5329 5326 5323 5321 5318 5315 5312 5308 5305 5301 5297 5293 5289 5285 5282 5278 5275 5272 5269 5266 5263 5259 5256 5252 5248 5244 5241 5238 5235 5232 5229 5227 5225 5223 5222 5220 5219 5218 5216 5214 5213 5210 5208 5206 5204 5202
5408 5407 5406 5406 5404 5403 5402 5401 5400 5398 5397 5396 5394 5393 5391 5389 5388 5386 5384 5382 5380 5378 5376 5373 5371 5368 5365 5362 5358 5355 5353 5350 5348 5345 5343 5340 5338 5335 5333 5330 5328 5325 5322 5319 5316 5313 5310 5306 5303 5299 5295 5291 5287 5283 5280 5277 5273 5270 5267 5263 5260 5257 5254 5250 5246 5242 5239 5236 5233 5230 5227 5225 5223 5221 5219 5218 5216 5214 5213 5210 5208 5206 5204 5201 5199 5198
5405 5404 5404 5403 5402 5401 5399 5398 5397 5396 5394 5393 5391 5390 5388 5387 5385 5384 5382 5380 5378 5376 5374 5372 5369 5367 5364 5361 5358 5354 5351 5348 5346 5344 5342 5339 5337 5334 5331 5329 5326 5323 5321 5318 5315 5311 5308 5304 5301 5297 5293 5289 5285 5282 5278 5275 5272 5268 5265 5261 5258 5255 5252 5248 5244 5240 5237 5234 5231 5228 5225 5223 5221 5219 5217 5215 5213 5211 5208 5206 5204 5202 5200 5198 5196 5194
5403 5402 5401 5400 5399 5398 5397 5396 5394 5393 5392 5390 5389 5387 5386 5384 5383 5381 5380 5378 5376 5374 5372 5370 5368 5366 5363 5360 5357 5353 5350 5347 5344 5342 5340 5338 5335 5333 5330 5327 5324 5322 5319 5316 5313 5309 5306 5303 5299 5295 5291 5287 5284 5280 5277 5274 5271 5267 5263 5260 5256 5253 5249 5246 5243 5239 5235 5232 5228 5226 5223 5221 5218 5217 5214 5213 5210 5208 5206 5203 5201 5199 5197 5194 5193 5191
5400 5399 5398 5397 5396 5395 5394 5393 5392 5391 5389 5388 5387 5385 5383 5382 5380 5378 5377 5376 5374 5372 5370 5368 5366 5364 5361 5358 5355 5353 5349 5346 5343 5341 5338 5336 5333 5331 5328 5325 5323 5319 5317 5314 5311 5308 5304 5301 5298 5294 5290 5286 5282 5279 5275 5273 5269 5266 5262 5258 5255 5251 5248 5244 5241 5238 5235 5231 5228 5224 5222 5219 5217 5215 5213 5211 5208 5206 5204 5202 5199 5197 5194 5192 5190 5188
5398 5397 5396 5395 5394 5393 5392 5391 5390 5389 5387 5386 5384 5383 5381 5379 5378 5376 5375 5373 5371 5370 5368 5366 5364 5362 5359 5357 5354 5351 5348 5345 5342 5339 5337 5334 5332 5329 5326 5323 5321 5318 5315 5312 5309 5306 5303 5300 5297 5293 5290 5286 5282 5278 5275 5271 5268 5265 5261 5257 5253 5250 5246 5243 5240 5237 5233 5230 5227 5224 5221 5218 5216 5214 5212 5209 5207 5205 5202 5200 5197 5195 5193 5190 5188 5186
5395 5394 5393 5393 5392 5391 5390 5389 5388 5386 5385 5383 5382 5380 5378 5377 5375 5374 5373 5371 5369 5367 5365 5363 5361 5359 5357 5354 5352 5349 5347 5344 5342 5339 5336 5333 5330 5328 5324 5322 5319 5316 5313 5310 5307 5304 5301 5298 5296 5293 5290 5286 5283 5279 5275 5271 5267 5263 5259 5256 5252 5248 5245 5242 5238 5235 5232 5229 5226 5223 5220 5218 5215 5213 5210 5208 5205 5203 5200 5198 5195 5193 5190 5188 5185 5183
5392 5392 5391 5390 5389 5388 5388 5387 5385 5384 5383 5381 5379 5378 5376 5375 5373 5372 5370 5368 5367 5365 5363 5361 5359 5357 5354 5352 5350 5347 5345 5343 5340 5338 5335 5332 5329 5326 5323 5320 5317 5314 5311 5308 5305 5302 5300 5298 5295 5293 5290 5287 5283 5279 5275 5271 5267 5263 5258 5254 5251 5247 5244 5241 5238 5235 5232 5229 5226 5223 5220 5217 5214 5212 5209 5206 5203 5201 5198 5196 5193 5190 5187 5184 5182 5180
5390 5389 5389 5388 5387 5386 5385 5384 5383 5382 5381 5379 5378 5376 5374 5373 5371 5370 5368 5366 5365 5363 5361 5359 5357 5354 5352 5349 5347 5345 5343 5341 5338 5336 5333 5331 5328 5325 5322 5319 5316 5313 5309 5307 5304 5301 5299 5296 5294 5293 5290 5287 5284 5280 5276 5271 5267 5262 5258 5253 5249 5246 5243 5239 5237 5234 5231 5228 5225 5222 5219 5216 5213 5210 5208 5205 5202 5199 5197 5194 5191 5188 5185 5183 5180 5178
5388 5387 5387 5386 5385 5384 5383 5382 5381 5380 5378 5377 5376 5374 5373 5371 5369 5368 5366 5364 5363 5361 5359 5357 5355 5352 5350 5348 5345 5343 5341 5339 5336 5334 5332 5329 5327 5324 5321 5318 5315 5313 5310 5307 5304 5301 5298 5295 5293 5291 5289 5287 5283 5280 5276 5272 5267 5262 5258 5253 5249 5245 5241 5238 5235 5233 5230 5227 5224 5221 5218 5216 5213 5210 5207 5204 5201 5198 5195 5192 5190 5187 5184 5181 5178 5176
5385 5385 5384 5384 5383 5382 5381 5380 5379 5378 5377 5375 5374 5372 5371 5369 5368 5366 5364 5363 5361 5359 5357 5355 5353 5351 5348 5346 5344 5342 5339 5337 5334 5332 5329 5327 5325 5323 5320 5318 5315 5313 5310 5308 5305 5302 5299 5295 5292 5290 5288 5286 5283 5279 5276 5272 5267 5263 5258 5253 5249 5245 5241 5238 5234 5232 5229 5226 5223 5221 5218 5215 5212 5209 5206 5203 5200 5197 5194 5191 5188 5185 5183 5180 5177 5174
5383 5383 5383 5382 5381 5380 5379 5378 5377 5376 5375 5373 5372 5371 5369 5368 5366 5364 5363 5361 5359 5357 5355 5353 5351 5349 5347 5344 5342 5340 5337 5335 5333 5330 5328 5325 5323 5321 5319 5317 5315 5313 5310 5308 5305 5302 5299 5296 5293 5289 5287 5284 5282 5279 5276 5272 5268 5263 5259 5254 5250 5246 5242 5238 5235 5232 5228 5226 5223 5221 5218 5215 5212 5209 5206 5203 5200 5197 5194 5191 5188 5184 5182 5179 5176 5173